This is the latest recevied weather packets stored in our database for station/object KB3KAV. If no packets are shown the sender has not sent any weather packets the latest 10 day(s).
| Time | Temp. | Humidity | Pressure | Rain* | Wind** | Luminosity | Snow |
|---|---|---|---|---|---|---|---|
| 1777808466 | 3.89° C | 73% | 1043.4 hPa | 0 mm | - | 90 W/m² | - |
| 1777807862 | 3.33° C | 75% | 1043.3 hPa | 0 mm | - | 73 W/m² | - |
| 1777807262 | 3.33° C | 79% | 1043.3 hPa | 0 mm | - | 49 W/m² | - |
| 1777806660 | 2.78° C | 80% | 1043.3 hPa | 0 mm | - | 36 W/m² | - |
| 1777806060 | 2.22° C | 80% | 1043.1 hPa | 0 mm | - | 27 W/m² | - |
| 1777805460 | 2.22° C | 82% | 1042.8 hPa | 0 mm | - | 26 W/m² | - |
| 1777804855 | 1.67° C | 82% | 1042.7 hPa | 0 mm | - | 23 W/m² | - |
| 1777804250 | 1.67° C | 82% | 1042.7 hPa | 0 mm | - | 18 W/m² | - |
| 1777803650 | 1.67° C | 81% | 1042.5 hPa | 0 mm | - | 11 W/m² | - |
| 1777803049 | 1.67° C | 80% | 1042.6 hPa | 0 mm | - | 5 W/m² | - |
| 1777802444 | 1.67° C | 78% | 1042.5 hPa | 0 mm | - | 1 W/m² | - |
| 1777801840 | 2.22° C | 76% | 1042.3 hPa | 0 mm | - | 0 W/m² | - |
| 1777801239 | 2.78° C | 75% | 1042.2 hPa | 0 mm | - | 0 W/m² | - |
| 1777800639 | 3.33° C | 74% | 1042.5 hPa | 0 mm | - | 0 W/m² | - |
| 1777800037 | 3.33° C | 71% | 1042.3 hPa | 0 mm | - | 0 W/m² | - |
| 1777799436 | 3.33° C | 71% | 1042.4 hPa | 0 mm | - | 0 W/m² | - |
| 1777798833 | 3.33° C | 71% | 1042.1 hPa | 0 mm | - | 0 W/m² | - |
| 1777798233 | 3.89° C | 70% | 1041.9 hPa | 0 mm | - | 0 W/m² | - |
| 1777797627 | 3.89° C | 70% | 1042.1 hPa | 0 mm | - | 0 W/m² | - |
| 1777797027 | 3.89° C | 70% | 1042.2 hPa | 0 mm | - | 0 W/m² | - |
| 1777796427 | 4.44° C | 70% | 1042 hPa | 0 mm | - | 0 W/m² | - |
| 1777795824 | 4.44° C | 69% | 1042 hPa | 0 mm | - | 0 W/m² | - |
| 1777795223 | 4.44° C | 67% | 1041.7 hPa | 0 mm | - | 0 W/m² | - |
| 1777794622 | 5° C | 66% | 1041.7 hPa | 0 mm | - | 0 W/m² | - |
| 1777794019 | 5° C | 67% | 1041.6 hPa | 0 mm | - | 0 W/m² | - |
* Rain latest hour (hover to see other rain measurements)
** Current wind speed in m/s (hover to see current wind gust speed)